Location: Antin
(43.3330°N, 0.2804°E)
Time: 19:53:52
(UTC+00:00)

SME Rocket - Pass Details

Date: 12 December 2023
Orbit: 550 x 2645 km, 99.9° (Epoch: 20 February)

Event Time Altitude Azimuth Distance (km) Brightness Sun altitude
Rises 05:24:39 0° 22° (NNE) 5,941 8.2 -20.5°
Reaches altitude 10° 05:29:25 10° 36° (NE) 5,147 8.0 -19.6°
Maximum altitude 05:39:43 23° 84° (E) 4,336 8.1 -17.8°
Drops below altitude 10° 05:50:04 10° 131° (SE) 5,249 8.8 -16.0°
Sets 05:54:51 0° 144° (SE) 6,091 9.0 -15.2°
